Location: Potawatomi Wildlife Park
(41.2308°N, 86.1050°W)
Time: 20:53:31
(UTC-04:00)

Daily predictions for brighter satellites

Satellite Brightness Start Highest point End
(mag) Time Altitude Azimuth Time Altitude Azimuth Time Altitude Azimuth
FengYun 1-2 T 4.4 20:51:32 10° SSE 20:57:12 86° WSW 21:02:53 10° NNW
ATLAS 5 CENTAUR R/B 4.1 20:55:54 10° N 21:00:00 19° NE 21:04:20 10° E
Cosmos 1634 Rocket 4.4 20:56:11 10° SSE 21:02:04 44° E 21:08:00 10° NNE
Cosmos 1092 Rocket 4.2 20:57:06 10° N 21:03:22 59° E 21:09:36 10° SSE
Cosmos 1707 Rocket 3.8 20:59:49 10° SSE 21:04:06 51° E 21:08:25 10° NNE
Helios 1B rocket 3.3 21:01:05 10° NE 21:04:39 28° E 21:08:11 10° SSE
Lacrosse 4 Rocket 2.8 21:01:07 10° N 21:04:44 25° NE 21:08:24 10° ESE
HJ-1C 4.2 21:01:49 10° S 21:05:12 56° W 21:08:37 10° NNW
USA 186 2.0 21:03:53 10° SE 21:06:24 38° ENE 21:09:08 10° N
ERBS 3.1 21:06:06 10° NNW 21:09:24 41° NE 21:12:43 10° ESE
ALOS 3.4 21:05:43 10° S 21:10:13 48° W 21:14:45 10° NNW
Cosmos 1733 Rocket 4.5 21:07:16 10° NNE 21:10:41 21° ENE 21:14:05 10° ESE
CENTAUR R/B 3.5 21:05:55 10° SW 21:11:51 53° NW 21:18:38 10° NNE
SAR-Lupe-4 4.4 21:08:50 10° SE 21:12:06 34° ENE 21:15:23 10° N
Cosmos 1939 Rocket 4.1 21:09:00 10° SE 21:12:22 26° ENE 21:15:43 10° NNE
Cosmos 1486 Rocket 4.0 21:07:11 10° NNW 21:12:25 71° ENE 21:17:38 10° SSE
SeaSat 1 4.4 21:18:20 10° ENE 21:20:57 15° NE 21:23:36 10° NNE
Resurs 1-3 3.8 21:17:30 10° S 21:21:53 76° WSW 21:26:17 10° NNW
Cosmos 1869 Rocket 3.7 21:17:35 10° N 21:22:06 83° W 21:26:34 10° S
Cosmos 2227 4.2 21:16:54 10° NNW 21:22:41 81° ENE 21:28:23 10° SSE
Cosmos 1408 3.3 21:20:57 10° N 21:24:22 34° ENE 21:27:28 12° SE
Cosmos 2360 4.3 21:18:54 10° SSW 21:24:37 85° WNW 21:30:24 10° NNE
Atlas Centaur 2 3.9 21:21:04 10° SSW 21:26:28 23° SSE 21:31:32 13° ESE
SAR-Lupe-1 4.4 21:26:07 10° SSE 21:29:34 48° ENE 21:33:02 10° N
Molniya-1 2.8 21:29:06 10° SW 21:30:46 65° NW 21:32:56 10° NNE
Abrixas rocket 3.1 21:27:59 10° W 21:31:12 50° NNW 21:34:25 10° NE
Cosmos 2242 Rocket 3.7 21:31:15 10° S 21:35:39 54° E 21:40:03 10° NNE
Cosmos 1455 3.3 21:33:22 10° SSW 21:37:02 48° W 21:40:43 10° N
Cosmos 1627 Rocket 4.5 21:31:22 10° N 21:37:35 71° E 21:43:42 10° SSE
Cosmos 2195 Rocket 4.4 21:35:01 10° N 21:41:09 77° E 21:47:17 10° S
Helios 1A 3.0 21:37:14 10° SSE 21:41:28 89° ENE 21:45:44 10° NNW
CZ-4B DEB 4.5 21:39:19 10° SSE 21:42:52 89° E 21:46:27 10° NNW
Meteor 2-20 4.5 21:36:51 10° N 21:43:00 87° W 21:49:08 10° S
Cosmos 2279 Rocket 4.1 21:37:14 10° SSE 21:43:16 54° E 21:49:19 10° NNE
Cosmos 1503 Rocket 4.0 21:38:32 10° NNW 21:43:49 70° ENE 21:48:10 15° SSE
CZ-3B DEB 3.5 21:44:00 10° W 21:45:42 12° WSW 21:47:03 10° SW
Cosmos 1354 Rocket 4.0 21:42:28 10° NNW 21:47:47 77° ENE 21:52:09 15° SSE
Cosmos 1869 3.6 21:46:05 10° SSW 21:49:59 67° W 21:53:56 10° N
Resurs 01 Rocket 3.5 21:49:13 10° SSW 21:53:07 30° W 21:57:03 10° NW
OAO 3 Rocket 3.8 21:49:38 10° WSW 21:54:12 40° S 21:56:39 24° ESE
H-2A R/B 3.8 21:52:50 13° E 21:54:24 15° ENE 21:57:07 10° NNE
SJ-11-01 4.2 21:51:18 12° SSE 21:55:36 85° ENE 22:00:18 10° NNW
CZ-4B DEB 2.7 21:54:21 18° S 21:56:29 73° WSW 21:59:32 10° NNW
YAOGAN 6 2.9 21:56:56 28° SE 21:58:31 48° ENE 22:02:02 10° N
Cosmos 1428 Rocket 4.4 21:53:58 10° N 22:00:04 65° E 22:04:53 17° SSE
Meteor 1-29 3.2 21:57:45 10° N 22:01:14 71° WNW 22:04:40 10° SSW
FALCON 9 R/B 2.2 21:59:42 10° SW 22:00:47 16° SSW 22:00:47 16° SSW
Cosmos 968 Rocket 4.4 22:00:05 10° N 22:04:47 33° ENE 22:06:50 25° ESE
Cosmos 2263 Rocket 2.3 21:59:49 10° NNW 22:05:21 61° ENE 22:08:25 26° SE
SPOT 5 3.8 22:04:11 24° ESE 22:05:49 30° ENE 22:09:54 10° N
COSMOS 2428 4.4 22:10:12 16° E 22:10:12 16° E 22:12:17 10° ENE
Meteor 2-10 Rocket 4.0 22:05:36 17° SSE 22:09:51 49° E 22:15:26 10° NNE
Cosmos 2322 Rocket 2.3 22:04:34 10° SSW 22:10:10 79° WNW 22:15:50 10° NNE
Envisat 3.4 22:05:57 10° S 22:10:57 61° W 22:16:00 10° NNW
Cosmos 1933 3.2 22:11:30 17° S 22:14:33 82° E 22:18:36 10° N
Sich 1 Rocket 4.0 22:11:05 10° N 22:15:22 44° ENE 22:16:31 36° ESE
Cosmos 2360 Rocket 2.3 22:15:49 13° S 22:20:35 49° ESE 22:26:02 10° NE
BREEZE-M DEB (TANK) 4.4 22:19:25 10° WNW 22:22:58 55° N 22:33:53 10° E
H-2A R/B 4.0 22:23:59 15° ENE 22:23:59 15° ENE 22:26:25 10° NNE
Cosmos 1825 3.5 22:20:53 10° NNW 22:24:25 37° W 22:27:16 14° SSW
USA 234 3.5 22:22:53 26° SSE 22:26:46 63° SW 22:33:16 10° NW
Cosmos 1908 Rocket 3.5 22:23:40 10° N 22:27:58 60° E 22:28:49 49° SE
Cosmos 2322 3.9 22:25:27 25° SSE 22:28:27 49° ESE 22:33:56 10° NE
NOAA 11 4.2 22:28:04 35° SSE 22:30:26 70° ENE 22:35:55 10° N
USA 245 4.4 22:30:44 36° SE 22:32:51 56° ENE 22:37:57 10° N
SL-16 R/B 3.1 22:32:32 10° SW 22:38:01 49° WNW 22:43:32 10° NNE
Cosmos 1862 4.5 22:34:21 10° NNW 22:38:08 40° W 22:40:18 22° SSW
SPOT 1/Viking Rocket 3.9 22:40:22 42° ESE 22:41:22 48° ENE 22:46:22 10° N
Cosmos 1782 Rocket 3.8 22:37:45 10° N 22:41:59 49° E 22:41:59 49° E
Lacrosse 4 Rocket 2.9 22:39:35 10° NW 22:43:28 33° WSW 22:45:08 25° SSW
MetOp-B 4.0 22:42:09 41° SSE 22:44:07 88° ENE 22:49:30 10° NNW
ERS-1 Rocket 3.3 22:42:09 29° S 22:44:37 60° W 22:49:35 10° NNW
Okean 2 Rocket 3.8 22:41:00 10° N 22:44:59 38° ENE 22:44:59 38° ENE
ATLAS 5 CENTAUR R/B 2.4 22:39:35 10° NNW 22:45:37 76° NE 22:47:45 44° SE
Cosmos 2333 Rocket 4.3 22:52:12 12° ENE 22:52:12 12° ENE 22:52:43 10° ENE
Milstar 3 3.9 22:47:13 10° WSW 22:52:40 23° SSW 22:53:10 23° S
ARGOS 3.0 22:52:58 52° SSE 22:54:19 84° ENE 22:59:43 10° NNW
Landsat 7 4.5 22:54:28 39° ENE 22:54:28 39° ENE 22:58:49 10° N
SeaSat 1 2.3 22:57:02 64° SSE 22:57:48 87° ENE 23:02:46 10° NNW
Cosmos 2278 Rocket 4.0 22:55:11 10° N 22:59:00 18° NE 23:00:07 17° ENE
Meteor 1-26 Rocket 4.4 22:58:32 25° SSW 23:01:53 71° W 23:07:41 10° N
Cosmos 1777 Rocket 4.1 23:01:15 10° NNW 23:06:28 58° ENE 23:06:40 57° ENE
Okean 1-7 3.1 23:07:56 70° NNE 23:07:56 70° NNE 23:11:53 10° N
Abrixas rocket 4.4 23:05:48 10° WNW 23:08:29 23° N 23:08:39 23° N
Cosmos 1844 Rocket 3.1 23:03:22 10° NNW 23:08:42 44° ENE 23:09:04 44° ENE
Terra 2.7 23:10:04 37° NE 23:10:04 37° NE 23:13:56 10° N
SL-08 RB Rocket 3.6 23:09:48 82° WSW 23:09:52 83° WSW 23:14:28 10° NNW
USA 229 DEB 3.5 23:04:38 10° SSW 23:11:27 82° ESE 23:18:25 10° NE
USA 229 3.5 23:04:44 10° SSW 23:11:32 81° ESE 23:18:30 10° NE
Cosmos 1703 Rocket 4.2 23:14:11 47° WSW 23:14:54 52° W 23:19:15 10° N
Atlas Centaur 2 3.6 23:08:16 10° SW 23:14:12 36° S 23:14:12 36° S
Cosmos 2266 Rocket 4.3 23:09:43 10° NNW 23:15:55 64° W 23:18:12 40° SSW
Cosmos 2221 Rocket 4.0 23:21:33 60° WNW 23:21:33 60° WNW 23:25:50 10° N
Nimbus 7 Rocket 4.5 23:15:55 10° NNE 23:21:51 75° WNW 23:24:01 41° SSW
MOS 1-B Rocket 4.2 23:22:53 48° SSW 23:24:21 62° WSW 23:29:59 10° NNW
Cosmos 2219 Rocket 3.4 23:28:37 29° ENE 23:28:37 29° ENE 23:31:40 10° NE
Meteor 1-10 Rocket 4.2 23:29:38 76° E 23:29:38 76° E 23:35:30 10° NNE
CZ-4C R/B 3.9 23:23:24 10° NNW 23:29:43 34° NE 23:32:09 28° ENE
DMSP B5D2-2 4.2 23:26:36 10° NNE 23:31:12 65° NE 23:31:12 65° NE
Cosmos 1867 3.9 23:27:27 10° NW 23:32:45 53° WSW 23:32:45 53° WSW
H-2A R/B 2.1 23:33:27 68° W 23:33:27 68° W 23:38:14 10° NNW
Meteor 1-11 Rocket 4.3 23:28:34 10° N 23:33:08 42° NE 23:33:08 42° NE
Cosmos 1244 Rocket 4.3 23:31:18 10° N 23:37:34 88° E 23:37:58 80° SSE
ASTEX 1 3.9 23:43:30 57° N 23:43:30 57° N 23:47:31 10° N
SPOT 5 4.3 23:43:25 29° WSW 23:43:49 29° W 23:47:58 10° NW
Cosmos 1553 Rocket 4.0 23:48:00 67° ENE 23:48:00 67° ENE 23:53:44 10° NNE
Cosmos 2263 Rocket 4.2 23:45:04 10° WNW 23:48:41 18° W 23:50:09 16° WSW
H-2A R/B 4.2 23:02:01 10° W 23:50:36 42° SSW 23:51:40 41° S
Geosat 4.4 23:46:18 10° NNE 23:50:29 59° N 23:50:29 59° N
COSMOS 2428 2.9 23:52:07 66° W 23:52:23 66° WNW 23:58:05 10° NNE
SL-08 R/B 4.4 23:47:17 10° N 23:53:02 72° NE 23:53:02 72° NE
